User: anonymous   Login
Location: Unspecified
(0.0000°N, 0.0000°E)
Time: 09:37:40
(UTC+02:00)
Language:

PSLV R/B - Orbit

View from above orbital plane
View from above orbital plane
View from above satellite
View from above satellite

Ground track
Ground track

The orbit data is extracted from the following two-line orbital elements,

1 29713U 07001E   15145.07932030  .00001005  00000-0  12601-3 0  9999
2 29713 097.6750 130.4871 0027031 054.5386 305.8346 14.84073586452170
Epoch (UTC): 25 May 2015 01:54:13
Eccentricity: 0.0027031
inclination: 97.6750°
perigee height: 597 km
apogee height: 635 km
right ascension of ascending node: 130.4871°
argument of perigee: 54.5386°
revolutions per day: 14.84073586
mean anomaly at epoch: 305.8346°
orbit number at epoch: 45217

The dashed part of the orbit path shows where the satellite is in the earth's shadow,  

DLR